CW5072 Weather Reports


Display with metric or nautical units.
time (UTC)temp
F
wind
direction
speed
MPH
gust
MPH
rain 1hr
in
rain 24hr
in
rain mn
in
humidity
%
barometer
mb
20260504173334 83 182 2.0 7.0 0.00 0.00 0.00 39 1014.4
20260504172400 84 176 3.0 10.0 0.00 0.00 0.00 39 1014.4
20260504171343 0 101 3.0 7.0 0.00 0.00 0.00 40 1014.5
20260504170344 84 169 3.0 6.0 0.00 0.00 0.00 40 1014.5
20260504160338 0 179 2.0 6.0 0.00 0.00 0.00 46 1015.1
20260504150340 79 84 3.0 7.0 0.00 0.00 0.00 51 1015.5
20260504140331 76 231 4.0 9.0 0.00 0.00 0.00 58 1015.1
20260504130344 72 145 3.0 6.0 0.00 0.00 0.00 65 1014.9
20260504110336 64 203 1.0 2.0 0.00 0.00 0.00 79 1014.0
20260504100333 64 132 2.0 3.0 0.00 0.00 0.00 79 1014.1
20260504081343 67 110 1.0 3.0 0.00 0.00 0.00 75 1014.0
20260504080405 67 232 1.0 4.0 0.00 0.00 0.00 75 1014.0
20260504070406 0 199 1.0 3.0 0.00 0.00 0.00 76 1014.5
20260504050355 70 174 1.0 3.0 0.00 0.00 0.00 71 1015.0
20260504045339 71 175 0.0 3.0 0.00 0.00 0.00 70 1015.0
20260504044340 0 174 0.0 3.0 0.00 0.00 0.00 70 1015.0
20260504043345 71 205 1.0 3.0 0.00 0.00 0.00 69 1015.0
20260504042406 72 215 0.0 3.0 0.00 0.00 0.00 69 1015.5
20260504041328 72 224 2.0 4.0 0.00 0.00 0.00 68 1015.6
20260504040333 0 205 1.0 3.0 0.00 0.00 0.00 68 1015.6
20260504035333 72 201 1.0 5.0 0.00 0.00 0.00 68 1015.6
20260504034335 72 200 1.0 3.0 0.00 0.00 0.00 68 1015.5
20260504033333 72 198 0.0 3.0 0.00 0.00 0.00 67 1015.5
20260504032356 72 198 1.0 2.0 0.00 0.00 0.00 66 1015.5
20260504031346 72 199 0.0 2.0 0.00 0.00 0.00 66 1015.4
20260504030347 72 199 1.0 3.0 0.00 0.00 0.00 64 1015.4
20260504025329 0 199 1.0 3.0 0.00 0.00 0.00 64 1015.4
20260504024330 72 189 1.0 3.0 0.00 0.00 0.00 65 1015.1
20260504023356 72 189 1.0 3.0 0.00 0.00 0.00 65 1015.1
20260504022337 0 199 1.0 3.0 0.00 0.00 0.00 65 1015.0
20260504021340 72 175 0.0 2.0 0.00 0.00 0.00 66 1014.8
20260504020402 72 177 1.0 4.0 0.00 0.00 0.00 66 1014.8
20260504015327 72 162 1.0 3.0 0.00 0.00 0.00 65 1014.5
20260504014330 0 182 1.0 2.0 0.00 0.00 0.00 65 1014.4
20260504013333 73 188 1.0 3.0 0.00 0.00 0.00 64 1014.4
20260504012334 73 116 1.0 2.0 0.00 0.00 0.00 63 1014.2
20260504011356 0 115 1.0 4.0 0.00 0.00 0.00 63 1014.0
20260504010343 74 201 2.0 4.0 0.00 0.00 0.00 62 1014.0
20260504005345 74 172 1.0 3.0 0.00 0.02 0.00 62 1013.9
20260504004346 0 171 1.0 3.0 0.00 0.02 0.00 61 1013.6
20260504003348 74 181 2.0 5.0 0.00 0.02 0.00 61 1013.6
20260504002334 75 92 1.0 4.0 0.00 0.02 0.00 61 1013.4
20260504001335 75 150 1.0 4.0 0.00 0.02 0.00 61 1013.3
20260504000401 75 169 1.0 4.0 0.00 0.02 0.00 60 1013.3
20260503235341 75 150 1.0 4.0 0.00 0.02 0.00 61 1013.4
20260503234343 76 87 1.0 5.0 0.00 0.02 0.00 59 1013.4
20260503233349 76 77 2.0 4.0 0.00 0.02 0.00 58 1013.4
20260503232350 76 145 2.0 6.0 0.00 0.02 0.00 58 1013.4
20260503231332 77 113 1.0 4.0 0.00 0.02 0.00 57 1013.2
20260503230337 77 109 2.0 5.0 0.00 0.02 0.00 57 1013.2
20260503225341 77 138 2.0 5.0 0.00 0.02 0.00 57 1013.2
20260503224342 78 66 3.0 5.0 0.00 0.02 0.00 56 1013.3
20260503223343 78 114 2.0 6.0 0.00 0.02 0.00 56 1013.3
20260503222344 78 46 3.0 7.0 0.00 0.02 0.00 54 1013.3
20260503221331 79 116 2.0 6.0 0.00 0.02 0.00 55 1013.3
20260503220332 79 39 2.0 6.0 0.00 0.02 0.00 54 1013.3
20260503215333 79 155 2.0 10.0 0.00 0.04 0.00 55 1013.3
20260503214337 79 111 1.0 5.0 0.00 0.04 0.00 54 1013.3
20260503213341 80 145 2.0 6.0 0.00 0.04 0.00 52 1013.3
20260503212344 0 176 2.0 6.0 0.00 0.04 0.00 53 1013.3
20260503211408 81 57 2.0 4.0 0.00 0.04 0.00 51 1013.3
20260503210330 0 186 2.0 4.0 0.00 0.04 0.00 45 1013.3
20260503205330 80 145 1.0 4.0 0.00 0.07 0.00 47 1013.4
20260503204338 0 184 2.0 4.0 0.00 0.07 0.00 47 1013.5
20260503203340 81 188 1.0 3.0 0.00 0.07 0.00 46 1013.5
20260503202341 81 246 2.0 5.0 0.00 0.07 0.00 45 1013.6
20260503201347 81 186 2.0 4.0 0.00 0.07 0.00 47 1013.9
20260503200333 0 165 3.0 6.0 0.00 0.07 0.00 48 1013.9
20260503195333 81 196 2.0 4.0 0.00 0.14 0.00 46 1014.1
20260503194335 81 160 2.0 6.0 0.00 0.14 0.00 48 1014.3
20260503193340 0 233 3.0 5.0 0.00 0.14 0.00 48 1014.3
20260503192346 80 166 2.0 7.0 0.00 0.14 0.00 50 1014.6
20260503191350 80 313 2.0 5.0 0.00 0.14 0.00 48 1015.0
20260503190342 0 215 2.0 8.0 0.00 0.14 0.00 48 1015.0
20260503185344 80 159 3.0 6.0 0.00 0.28 0.00 49 1015.1
20260503184345 79 176 3.0 7.0 0.00 0.28 0.00 51 1015.3
20260503183331 80 201 3.0 5.0 0.00 0.28 0.00 49 1015.3
20260503182336 0 113 3.0 4.0 0.00 0.28 0.00 50 1015.5
20260503181338 80 180 3.0 6.0 0.00 0.28 0.00 50 1015.5
20260503180340 80 205 2.0 6.0 0.00 0.28 0.00 54 1015.5
20260503175345 0 155 3.0 9.0 0.00 0.28 0.00 53 1015.5
20260503174326 0 190 2.0 7.0 0.00 0.28 0.00 53 1015.9